SCP
0 0 0 0 0 0 0 0 0 0 0 -0 -0 -0 0 0 -0 0 0 0 0 -0 -0 -0 -0 -0 -0 -0 -0 -0 -0 -0 -0 -0 0 0 0 0 0 0 0 0 0 0 0 0 0 0 0
0 0 0 0 0 0 0 0 0 0 -0 -0 0 0 0 0 -0 -0 -0 -0 -0 -0 -0 -0 -0 -0 -0 -0 -0 -0 -0 -0 -0 -0 -0 -0 0 0 0 0 0 0 0 0 0 0 0 0 0
-0 -0 0 0 0 -0 -0 0 0 0 0 0 0 0 0 0 0 0 0 -0 -0 -0 -0 -0 -0 -0 -0 -0 -0 -0 -0 -0 -0 -0 -0 -0 0 0 0 0 0 0 0 0 0 0 0 0 0
-0 -0 0 0 -0 -0 -0 0 -0 -0 0 0 0 -0 0 0 0 0 0 -0 -0 -0 -0 -0 -0 -0 -0 -0 -0 -0 -0 -0 -0 -0 -0 -0 0 0 0 0 0 0 0 0 0 0 0 0 0
0 0 0 0 -0 0 0 0 0 0 0 0 0 0 0 0 0 0 0 -0 -0 -0 -0 -0 -0 -0 -0 -0 -0 -0 -0 -0 -0 0 0 0 0 0 0 0 0 0 0 0 0 0 0 0 0
0 0 0 0 0 0 0 0 0 0 0 0 0 0 0 0 0 0 0 0 -0 -0 -0 -0 -0 -0 -0 -0 -0 -0 -0 0 0 0 0 0 0 0 0 0 0 0 0 0 0 0 0 0 0
-0 0 0 0 0 0 0 0 0 0 0 0 0 0 0 0 0 0 0 0 0 -0 -0 -0 -0 -0 -0 -0 0 0 0 0 0 0 0 0 0 0 0 0 0 0 0 0 0 0 0 0 0
0 0 0 0 0 0 0 0 0 0 0 0 0 0 0 0 0 0 0 0 0 0 -0 -0 -0 -0 -0 -0 0 0 0 0 0 0 0 0 0 0 0 0 0 0 0 0 0 0 0 0 0
0 0 0 0 0 0 0 0 0 0 0 0 0 0 0 0 0 0 0 0 0 0 0 0 0 -0 -0 -0 0 0 0 0 0 0 0 0 0 0 0 0 0 0 0 0 0 0 0 0 0
0 0 0 0 0 0 0 0 0 0 0 0 0 0 0 0 0 0 0 0 0 0 0 0 0 0 0 0 0 0 0 0 0 0 0 0 0 0 0 0 0 0 0 0 0 0 0 0 0
0 0 0 0 0 0 0 0 0 0 0 0 0 0 0 0 0 0 0 0 0 0 0 0 0 0 0 0 0 0 0 0 0 0 0 0 0 0 0 0 0 0 0 0 0 0 0 0 0
0 0 0 0 0 0 0 0 0 0 0 0 -0 0 0 0 0 0 0 0 0 0 0 0 0 0 0 0 0 0 0 0 0 0 0 0 0 0 0 0 0 0 0 0 0 0 0 0 0
0 0 0 0 0 0 0 0 0 0 0 0 0 0 0 0 0 0 0 0 0 0 0 0 0 0 0 0 0 0 0 0 0 0 0 0 0 0 0 0 0 0 0 0 0 0 0 0 0
0 0 0 0 0 0 0 0 0 0 0 0 0 0 0 -0 0 0 0 0 0 0 0 0 0 0 0 0 0 0 0 0 0 0 0 0 0 0 0 0 0 0 0 0 0 0 0 0 0
0 0 0 0 0 0 0 0 0 0 0 0 0 0 0 0 0 -0 0 0 0 0 0 0 0 0 0 0 0 0 0 0 0 0 0 0 0 0 0 0 0 0 0 0 0 0 0 0 0
0 0 0 0 0 0 0 0 0 0 0 0 0 0 0 0 0 0 0 0 0 0 0 0 0 0 0 0 0 0 0 0 0 0 0 0 0 0 0 0 0 0 0 0 0 0 0 0 0
0 0 0 0 0 0 0 0 0 0 0 -0 0 0 0 0 0 0 0 0 0 0 0 0 0 0 0 0 0 0 0 0 0 0 0 0 0 0 0 0 0 0 0 0 0 0 0 0 0
0 0 0 0 0 0 0 0 0 -0 0 -0 -0 0 0 0 0 0 0 0 0 0 0 0 0 0 0 0 0 0 0 0 0 0 0 0 0 0 0 0 0 0 0 0 0 0 0 0 0
0 0 0 0 0 0 0 0 0 0 0 -0 0 0 0 0 0 0 0 0 0 0 0 0 0 0 0 0 0 0 0 0 0 0 0 0 0 0 0 0 0 0 0 0 0 0 0 0 0
0 0 0 0 0 0 0 0 -0 -0 -0 0 0 0 0 0 0 0 0 0 0 0 0 0 0 0 0 0 0 0 0 0 0 0 0 0 0 0 0 0 0 0 0 0 0 0 0 0 0
0 0 0 0 0 0 0 0 0 -0 -0 0 0 0 0 0 0 0 0 0 0 0 0 0 0 0 0 0 0 0 0 0 0 0 0 0 0 0 0 0 0 0 0 0 0 0 0 0 0
0 0 0 0 0 0 0 -0 0 0 -0 0 0 0 0 0 0 0 0 0 0 0 0 0 0 0 0 0 0 0 0 0 0 0 0 0 0 0 0 0 0 0 0 0 0 0 0 0 0
0 0 0 0 0 0 0 -0 0 0 0 0 0 0 0 0 0 0 0 0 0 0 0 0 0 0 0 0 0 0 0 -0 0 0 0 0 0 0 0 0 0 0 0 0 0 0 0 0 0
0 0 0 0 0 0 0 0 0 0 0 0 0 0 0 0 0 0 0 0 0 0 0 0 0 0 0 0 0 0 0 0 -0 -0 -0 0 0 0 0 0 0 0 0 0 0 0 0 0 0
0 0 0 0 0 0 0 0 0 0 0 0 0 0 0 0 0 0 0 0 0 0 0 0 0 0 -0 0 0 0 0 0 0 0 0 0 0 0 0 0 0 0 0 0 0 0 0 0 0
0 0 0 0 0 0 0 0 0 0 0 0 0 0 0 0 0 0 0 0 -0 0 -0 -0 -0 -0 -0 -0 -0 -0 0 0 0 0 0 0 0 0 0 0 0 0 0 0 0 0 0 0 0
0 0 0 0 0 0 0 0 0 0 0 0 0 0 0 0 0 0 0 0 0 0 -0 -0 -0 -0 -0 -0 -0 -0 -0 -0 0 0 0 -0 -0 -0 0 0 0 0 0 0 0 0 0 0 0
0 0 0 0 0 0 0 0 0 0 0 0 0 0 0 0 0 0 0 0 -0 -0 -0 0 0 0 0 0 -0 -0 -0 -0 -0 -0 -0 -0 -0 -0 0 0 0 0 0 0 0 0 0 0 0
0 0 0 0 0 0 0 0 0 0 0 0 0 0 0 0 0 -0 -0 -0 -0 0 0 0 0 0 0 0 0 0 -0 -0 -0 -0 -0 -0 -0 -0 -0 0 0 0 0 0 0 0 0 0 0
0 0 0 0 0 0 0 0 0 0 0 0 0 0 0 0 0 -0 0 0 0 0 0 0 0 0 0 0 0 0 0 0 0 -0 -0 -0 -0 -0 -0 0 0 0 0 0 0 0 0 0 0
Wind_Speed_500mb
12 12 11 10 11 8 6 4 6 6 3 6 6 10 17 17 12 9 6 7 12 26 35 39 40 39 37 35 33 31 29 24 22 21 20 19 17 19 19 17 15 15 14 13 11 10 12 12 11
8 7 7 11 9 9 11 6 2 12 10 8 9 12 13 11 3 5 7 7 12 24 36 41 42 41 38 36 34 30 28 26 25 25 24 22 22 22 20 19 18 16 17 16 15 15 14 12 11
3 3 10 6 7 11 11 4 4 7 9 9 8 7 14 6 1 1 7 8 15 24 37 39 42 42 40 39 36 34 31 26 25 23 23 27 26 19 23 21 19 19 19 18 17 15 13 11 7
3 5 9 10 10 9 7 14 13 16 4 6 8 16 7 14 3 12 10 9 19 27 34 41 39 42 43 41 40 39 34 31 29 27 29 32 27 20 19 19 19 20 19 19 16 13 10 7 4
3 8 8 9 9 7 8 10 9 11 9 5 7 7 9 15 16 20 21 17 20 29 34 41 42 44 43 43 43 41 40 38 35 35 35 33 25 22 21 20 21 21 20 17 14 11 8 7 4
10 8 10 10 9 3 5 3 7 8 6 4 9 19 12 10 9 13 15 17 22 30 35 40 43 47 47 46 45 44 45 50 50 50 41 31 28 25 24 23 22 20 18 17 14 13 10 8 6
13 9 14 15 15 13 5 5 9 8 10 10 8 12 7 11 9 17 18 18 23 31 37 41 43 48 48 48 49 51 55 50 46 41 38 34 31 28 27 25 22 21 21 18 17 15 13 11 9
8 8 10 10 10 16 9 7 9 15 19 5 7 11 10 15 19 24 23 23 25 32 39 43 45 50 53 54 55 56 57 50 45 42 39 36 32 30 29 27 26 25 23 23 21 19 16 13 11
5 10 16 18 14 5 8 15 9 13 24 26 25 30 24 34 41 38 32 31 32 35 41 44 49 49 51 55 59 61 61 57 52 48 45 40 36 36 36 32 31 29 26 24 22 20 16 14 13
15 15 20 11 17 16 24 21 28 27 28 36 42 42 34 41 46 43 39 36 39 41 42 47 50 53 53 52 53 63 66 63 60 54 50 44 41 40 39 38 35 33 32 31 28 24 21 19 16
11 19 22 21 27 28 29 31 33 31 30 41 32 25 29 30 42 45 45 40 37 40 45 48 53 55 57 58 59 60 63 66 65 61 57 51 49 49 44 43 41 40 38 36 32 29 26 22 19
20 33 36 31 17 16 28 35 33 35 57 53 55 48 43 39 41 41 41 41 39 39 45 50 53 58 60 62 65 64 63 67 67 66 61 61 58 57 52 52 48 47 44 44 38 35 30 26 23
30 32 30 30 30 35 42 44 38 47 61 57 53 46 41 39 38 37 37 40 39 43 46 52 56 59 63 67 68 67 68 68 64 62 64 65 62 61 57 57 55 52 50 50 45 41 36 31 27
23 25 40 44 40 40 34 48 32 28 30 36 38 41 40 40 32 33 36 39 41 38 39 47 57 61 65 70 70 72 72 73 70 71 69 68 66 66 65 62 60 57 56 54 51 46 41 37 33
23 26 31 45 49 21 12 25 24 43 34 39 43 44 42 38 41 47 41 39 39 48 48 48 47 55 64 68 71 72 73 72 74 73 74 73 71 72 71 68 66 62 61 58 56 52 49 45 41
18 23 19 3 12 6 13 29 31 18 21 45 57 66 62 57 47 42 38 37 37 37 42 45 48 51 58 64 69 73 77 79 75 75 77 78 75 78 79 75 73 69 66 64 63 60 56 51 47
25 23 31 31 22 5 18 28 26 42 56 73 67 60 50 47 36 24 22 20 21 20 24 33 39 45 50 57 64 69 72 80 82 79 82 81 82 82 84 82 80 75 73 72 70 66 60 57 53
28 37 37 31 28 20 31 41 41 54 43 68 70 52 41 31 19 16 11 7 6 8 11 15 23 30 36 45 57 68 69 77 78 85 87 86 87 87 87 89 88 83 81 79 77 71 65 62 55
39 37 42 39 38 41 43 41 37 53 56 57 59 38 23 12 13 17 26 28 29 25 22 14 11 16 22 33 42 53 66 70 75 83 85 86 89 91 90 94 96 94 91 88 81 77 73 67 61
33 41 42 36 25 12 32 40 50 39 48 30 27 21 12 9 16 31 36 36 37 32 29 29 28 24 21 21 30 36 42 53 64 71 78 84 86 91 93 98 102 101 96 94 91 90 86 78 77
37 39 38 42 38 27 28 31 13 18 30 10 10 8 5 13 30 38 42 39 35 36 34 30 25 21 18 19 25 31 37 47 55 58 69 74 83 88 93 96 103 108 105 103 100 99 97 94 87
37 30 26 25 14 18 16 16 28 13 16 11 16 30 29 38 38 38 38 41 40 39 32 30 29 26 24 21 18 22 32 38 43 46 54 60 70 72 84 95 98 106 113 111 110 107 104 98 96
11 4 12 16 22 32 23 15 8 11 8 23 24 43 41 41 37 39 41 39 40 42 42 33 24 22 22 22 18 17 22 28 35 37 46 55 61 66 70 79 86 102 112 115 115 113 112 110 104
5 12 24 21 15 17 24 20 7 4 21 16 34 35 32 32 32 34 33 33 37 38 39 40 37 36 31 26 24 23 27 28 34 34 37 48 56 62 65 67 77 83 101 116 117 116 115 115 112
12 16 13 15 15 22 17 15 18 7 28 13 21 25 29 27 31 29 32 35 35 34 34 42 47 46 44 40 36 32 32 34 35 36 38 39 55 61 69 66 68 76 85 97 114 119 122 120 121
15 13 14 12 22 32 28 27 19 15 26 31 29 26 23 28 33 35 34 33 39 51 56 54 50 45 45 46 48 47 42 40 41 42 42 45 49 55 63 69 68 67 75 84 95 115 124 125 124
3 12 13 11 27 21 33 45 41 32 19 24 24 25 34 39 40 41 41 45 46 44 43 45 47 45 46 49 50 51 53 55 53 49 47 50 55 55 56 59 66 70 69 76 88 102 117 126 127
14 4 11 9 11 34 39 39 28 26 15 15 19 23 23 23 25 31 36 41 42 46 49 49 49 53 56 60 61 56 54 52 52 54 57 54 52 55 56 60 58 61 70 73 82 92 103 112 125
17 20 21 21 19 29 38 34 24 14 16 15 16 15 22 25 25 25 27 31 31 32 37 43 47 50 54 56 57 59 60 58 56 55 53 57 61 56 56 53 59 60 64 67 77 87 97 104 117
40 42 38 28 39 28 33 40 41 20 21 24 25 14 11 14 21 21 23 25 30 34 37 38 42 46 49 56 58 58 59 60 61 60 58 57 59 62 60 57 56 57 62 66 73 82 90 99 109
Wind_Direction_500mb
290 295 313 291 260 228 270 88 334 301 273 26 314 298 337 311 315 353 347 295 202 195 199 196 197 195 192 191 195 199 202 201 198 203 211 207 202 206 207 218 233 253 277 292 301 305 304 307 304
295 295 288 282 259 272 69 57 221 35 17 316 284 269 273 300 285 274 335 280 215 198 196 200 200 202 201 199 200 199 201 202 203 205 216 213 216 223 220 228 241 255 267 277 285 292 295 300 299
304 252 268 273 290 344 347 37 11 331 313 273 282 263 303 314 317 208 260 281 216 199 198 207 206 206 209 210 208 206 208 211 213 214 223 230 233 217 219 226 236 249 261 270 279 286 291 295 295
303 251 238 261 326 343 303 335 340 299 236 242 280 273 241 259 223 245 274 273 218 207 202 213 212 213 212 212 211 211 210 206 213 219 223 235 238 239 229 235 245 254 262 267 272 277 276 279 283
275 249 261 256 298 307 314 315 295 285 295 259 224 270 278 292 282 278 275 268 229 216 209 216 212 214 217 213 211 210 207 206 213 213 220 237 242 239 238 245 253 259 263 264 267 260 249 241 236
248 278 256 295 346 301 259 323 286 261 273 239 247 267 271 246 312 318 297 266 234 223 220 222 215 215 216 218 216 210 208 210 214 218 232 240 239 239 243 247 250 248 246 249 244 233 227 231 232
278 270 286 291 288 282 215 172 236 314 290 265 252 270 266 239 268 306 298 273 241 228 226 223 221 218 218 218 218 216 216 222 227 232 236 234 237 238 245 247 243 239 241 237 225 220 216 221 230
273 274 267 241 290 289 164 198 257 275 291 248 235 250 255 200 275 291 283 265 251 234 231 224 223 222 220 219 219 221 227 232 243 240 238 237 242 245 248 244 242 240 232 226 222 221 223 225 232
243 256 269 267 264 278 178 265 215 267 273 265 248 258 288 274 283 282 269 263 253 244 237 231 227 225 224 222 222 224 228 235 244 240 237 235 232 235 236 233 236 238 235 231 226 227 230 237 240
225 246 277 291 279 277 293 270 285 282 269 272 266 256 264 275 272 272 265 261 256 251 246 239 235 230 225 222 223 228 230 233 238 237 236 234 233 235 231 231 230 229 227 225 225 227 231 235 234
224 249 277 295 280 288 283 288 279 269 276 272 277 286 282 276 269 269 265 255 251 258 250 248 241 238 230 224 226 232 229 233 236 236 233 232 230 232 232 233 229 228 225 226 225 227 230 234 238
258 249 273 281 294 286 276 287 281 269 271 279 286 290 284 273 264 266 266 262 256 246 248 251 245 239 236 234 233 232 233 235 237 235 232 233 229 231 229 231 230 229 225 226 225 230 236 236 235
247 271 279 281 278 275 283 270 268 274 275 283 284 284 276 271 270 264 263 265 260 250 246 248 250 243 239 238 236 237 234 235 233 236 230 234 233 233 233 231 231 229 226 227 226 227 228 232 236
314 292 285 279 272 272 264 277 285 270 283 288 288 287 281 276 268 272 269 270 272 276 270 258 252 251 245 242 240 241 238 238 235 236 238 237 235 235 235 234 233 231 230 228 227 228 228 229 229
285 292 292 276 259 255 263 272 233 268 276 281 288 289 286 273 278 282 278 268 265 271 270 263 263 257 248 246 244 241 243 240 241 239 239 240 237 237 238 237 236 235 233 231 229 228 227 226 226
273 279 283 318 111 201 201 280 297 328 313 291 289 288 285 288 292 292 284 273 267 261 258 262 256 257 255 249 248 245 244 245 243 244 244 244 240 238 238 238 238 237 235 233 231 229 228 227 226
239 271 279 292 302 220 222 295 298 301 299 289 286 285 297 301 311 309 293 274 270 260 257 258 261 257 254 252 247 248 246 247 248 247 248 247 245 241 241 241 240 238 236 234 231 229 229 229 226
279 293 294 290 292 245 274 278 293 292 283 277 281 299 306 313 342 341 355 354 334 308 279 272 266 268 263 251 247 246 246 249 247 248 251 251 250 247 242 242 242 240 238 234 230 230 229 229 228
283 288 282 287 294 288 289 299 297 288 284 270 287 302 317 5 26 32 37 41 49 44 37 15 338 304 289 276 260 252 250 250 253 253 253 252 252 248 244 243 242 240 238 237 234 231 226 223 222
278 277 280 282 279 302 290 295 281 282 271 282 301 303 320 32 46 55 46 46 52 50 48 34 18 3 338 299 280 266 261 260 259 261 258 254 253 254 249 243 242 242 240 237 233 230 225 222 224
262 272 282 287 305 286 291 288 254 249 260 274 19 355 31 69 66 47 46 42 47 50 53 48 35 24 359 325 297 286 272 266 267 263 265 264 258 254 254 251 246 245 242 240 238 234 231 225 222
279 283 286 285 290 287 9 294 295 302 272 141 92 59 38 61 63 52 49 45 41 38 39 40 37 29 20 4 335 306 293 288 283 282 279 275 271 264 258 255 250 248 248 244 240 237 234 230 229
253 334 278 273 269 287 271 243 256 259 257 91 84 67 63 67 60 48 41 38 34 29 29 29 30 23 19 11 355 324 301 295 298 288 282 281 278 275 266 261 258 250 249 248 244 241 235 233 233
25 275 262 264 267 259 260 234 302 325 138 153 79 78 74 67 52 42 39 31 32 29 27 22 21 22 15 3 352 335 318 306 295 298 285 279 283 282 277 268 264 259 252 249 246 245 243 238 234
224 271 287 261 229 256 299 283 248 283 288 72 108 91 81 65 53 46 39 29 22 20 19 18 14 9 8 6 1 352 337 322 312 306 296 280 281 282 282 284 274 265 257 252 249 246 245 241 238
203 257 271 294 279 293 301 268 260 323 92 107 103 91 73 49 35 29 22 14 7 2 0 0 0 356 357 357 355 353 349 343 331 317 304 290 279 279 280 286 285 278 265 256 251 247 245 244 241
359 232 276 271 272 275 270 273 275 259 133 103 86 62 37 22 15 11 6 2 359 355 354 353 350 352 353 354 354 350 346 344 343 334 318 303 296 293 286 279 278 279 275 264 254 246 245 244 243
230 25 259 216 246 259 272 279 283 284 110 59 44 44 36 25 15 5 0 353 348 343 340 339 337 337 334 337 341 344 345 345 341 340 338 329 310 297 291 288 283 277 275 271 260 254 246 243 244
228 245 230 262 251 265 273 271 295 49 63 67 34 23 8 3 358 359 355 351 348 348 347 345 342 342 338 338 339 338 338 339 340 339 335 335 335 323 300 290 289 286 279 276 267 259 251 246 243
285 278 273 262 268 246 249 257 283 5 89 41 357 6 360 346 336 348 352 349 347 346 346 346 342 340 336 336 338 336 334 336 337 337 332 329 329 333 330 305 289 282 281 278 270 265 258 247 245
Wind_Speed_850mb
12 12 11 10 11 8 6 4 6 6 3 6 6 10 17 17 12 9 6 7 12 26 35 39 40 39 37 35 33 31 29 24 22 21 20 19 17 19 19 17 15 15 14 13 11 10 12 12 11
8 7 7 11 9 9 11 6 2 12 10 8 9 12 13 11 3 5 7 7 12 24 36 41 42 41 38 36 34 30 28 26 25 25 24 22 22 22 20 19 18 16 17 16 15 15 14 12 11
3 3 10 6 7 11 11 4 4 7 9 9 8 7 14 6 1 1 7 8 15 24 37 39 42 42 40 39 36 34 31 26 25 23 23 27 26 19 23 21 19 19 19 18 17 15 13 11 7
3 5 9 10 10 9 7 14 13 16 4 6 8 16 7 14 3 12 10 9 19 27 34 41 39 42 43 41 40 39 34 31 29 27 29 32 27 20 19 19 19 20 19 19 16 13 10 7 4
3 8 8 9 9 7 8 10 9 11 9 5 7 7 9 15 16 20 21 17 20 29 34 41 42 44 43 43 43 41 40 38 35 35 35 33 25 22 21 20 21 21 20 17 14 11 8 7 4
10 8 10 10 9 3 5 3 7 8 6 4 9 19 12 10 9 13 15 17 22 30 35 40 43 47 47 46 45 44 45 50 50 50 41 31 28 25 24 23 22 20 18 17 14 13 10 8 6
13 9 14 15 15 13 5 5 9 8 10 10 8 12 7 11 9 17 18 18 23 31 37 41 43 48 48 48 49 51 55 50 46 41 38 34 31 28 27 25 22 21 21 18 17 15 13 11 9
8 8 10 10 10 16 9 7 9 15 19 5 7 11 10 15 19 24 23 23 25 32 39 43 45 50 53 54 55 56 57 50 45 42 39 36 32 30 29 27 26 25 23 23 21 19 16 13 11
5 10 16 18 14 5 8 15 9 13 24 26 25 30 24 34 41 38 32 31 32 35 41 44 49 49 51 55 59 61 61 57 52 48 45 40 36 36 36 32 31 29 26 24 22 20 16 14 13
15 15 20 11 17 16 24 21 28 27 28 36 42 42 34 41 46 43 39 36 39 41 42 47 50 53 53 52 53 63 66 63 60 54 50 44 41 40 39 38 35 33 32 31 28 24 21 19 16
11 19 22 21 27 28 29 31 33 31 30 41 32 25 29 30 42 45 45 40 37 40 45 48 53 55 57 58 59 60 63 66 65 61 57 51 49 49 44 43 41 40 38 36 32 29 26 22 19
20 33 36 31 17 16 28 35 33 35 57 53 55 48 43 39 41 41 41 41 39 39 45 50 53 58 60 62 65 64 63 67 67 66 61 61 58 57 52 52 48 47 44 44 38 35 30 26 23
30 32 30 30 30 35 42 44 38 47 61 57 53 46 41 39 38 37 37 40 39 43 46 52 56 59 63 67 68 67 68 68 64 62 64 65 62 61 57 57 55 52 50 50 45 41 36 31 27
23 25 40 44 40 40 34 48 32 28 30 36 38 41 40 40 32 33 36 39 41 38 39 47 57 61 65 70 70 72 72 73 70 71 69 68 66 66 65 62 60 57 56 54 51 46 41 37 33
23 26 31 45 49 21 12 25 24 43 34 39 43 44 42 38 41 47 41 39 39 48 48 48 47 55 64 68 71 72 73 72 74 73 74 73 71 72 71 68 66 62 61 58 56 52 49 45 41
18 23 19 3 12 6 13 29 31 18 21 45 57 66 62 57 47 42 38 37 37 37 42 45 48 51 58 64 69 73 77 79 75 75 77 78 75 78 79 75 73 69 66 64 63 60 56 51 47
25 23 31 31 22 5 18 28 26 42 56 73 67 60 50 47 36 24 22 20 21 20 24 33 39 45 50 57 64 69 72 80 82 79 82 81 82 82 84 82 80 75 73 72 70 66 60 57 53
28 37 37 31 28 20 31 41 41 54 43 68 70 52 41 31 19 16 11 7 6 8 11 15 23 30 36 45 57 68 69 77 78 85 87 86 87 87 87 89 88 83 81 79 77 71 65 62 55
39 37 42 39 38 41 43 41 37 53 56 57 59 38 23 12 13 17 26 28 29 25 22 14 11 16 22 33 42 53 66 70 75 83 85 86 89 91 90 94 96 94 91 88 81 77 73 67 61
33 41 42 36 25 12 32 40 50 39 48 30 27 21 12 9 16 31 36 36 37 32 29 29 28 24 21 21 30 36 42 53 64 71 78 84 86 91 93 98 102 101 96 94 91 90 86 78 77
37 39 38 42 38 27 28 31 13 18 30 10 10 8 5 13 30 38 42 39 35 36 34 30 25 21 18 19 25 31 37 47 55 58 69 74 83 88 93 96 103 108 105 103 100 99 97 94 87
37 30 26 25 14 18 16 16 28 13 16 11 16 30 29 38 38 38 38 41 40 39 32 30 29 26 24 21 18 22 32 38 43 46 54 60 70 72 84 95 98 106 113 111 110 107 104 98 96
11 4 12 16 22 32 23 15 8 11 8 23 24 43 41 41 37 39 41 39 40 42 42 33 24 22 22 22 18 17 22 28 35 37 46 55 61 66 70 79 86 102 112 115 115 113 112 110 104
5 12 24 21 15 17 24 20 7 4 21 16 34 35 32 32 32 34 33 33 37 38 39 40 37 36 31 26 24 23 27 28 34 34 37 48 56 62 65 67 77 83 101 116 117 116 115 115 112
12 16 13 15 15 22 17 15 18 7 28 13 21 25 29 27 31 29 32 35 35 34 34 42 47 46 44 40 36 32 32 34 35 36 38 39 55 61 69 66 68 76 85 97 114 119 122 120 121
15 13 14 12 22 32 28 27 19 15 26 31 29 26 23 28 33 35 34 33 39 51 56 54 50 45 45 46 48 47 42 40 41 42 42 45 49 55 63 69 68 67 75 84 95 115 124 125 124
3 12 13 11 27 21 33 45 41 32 19 24 24 25 34 39 40 41 41 45 46 44 43 45 47 45 46 49 50 51 53 55 53 49 47 50 55 55 56 59 66 70 69 76 88 102 117 126 127
14 4 11 9 11 34 39 39 28 26 15 15 19 23 23 23 25 31 36 41 42 46 49 49 49 53 56 60 61 56 54 52 52 54 57 54 52 55 56 60 58 61 70 73 82 92 103 112 125
17 20 21 21 19 29 38 34 24 14 16 15 16 15 22 25 25 25 27 31 31 32 37 43 47 50 54 56 57 59 60 58 56 55 53 57 61 56 56 53 59 60 64 67 77 87 97 104 117
40 42 38 28 39 28 33 40 41 20 21 24 25 14 11 14 21 21 23 25 30 34 37 38 42 46 49 56 58 58 59 60 61 60 58 57 59 62 60 57 56 57 62 66 73 82 90 99 109
Wind_Direction_850mb
290 295 313 291 260 228 270 88 334 301 273 26 314 298 337 311 315 353 347 295 202 195 199 196 197 195 192 191 195 199 202 201 198 203 211 207 202 206 207 218 233 253 277 292 301 305 304 307 304
295 295 288 282 259 272 69 57 221 35 17 316 284 269 273 300 285 274 335 280 215 198 196 200 200 202 201 199 200 199 201 202 203 205 216 213 216 223 220 228 241 255 267 277 285 292 295 300 299
304 252 268 273 290 344 347 37 11 331 313 273 282 263 303 314 317 208 260 281 216 199 198 207 206 206 209 210 208 206 208 211 213 214 223 230 233 217 219 226 236 249 261 270 279 286 291 295 295
303 251 238 261 326 343 303 335 340 299 236 242 280 273 241 259 223 245 274 273 218 207 202 213 212 213 212 212 211 211 210 206 213 219 223 235 238 239 229 235 245 254 262 267 272 277 276 279 283
275 249 261 256 298 307 314 315 295 285 295 259 224 270 278 292 282 278 275 268 229 216 209 216 212 214 217 213 211 210 207 206 213 213 220 237 242 239 238 245 253 259 263 264 267 260 249 241 236
248 278 256 295 346 301 259 323 286 261 273 239 247 267 271 246 312 318 297 266 234 223 220 222 215 215 216 218 216 210 208 210 214 218 232 240 239 239 243 247 250 248 246 249 244 233 227 231 232
278 270 286 291 288 282 215 172 236 314 290 265 252 270 266 239 268 306 298 273 241 228 226 223 221 218 218 218 218 216 216 222 227 232 236 234 237 238 245 247 243 239 241 237 225 220 216 221 230
273 274 267 241 290 289 164 198 257 275 291 248 235 250 255 200 275 291 283 265 251 234 231 224 223 222 220 219 219 221 227 232 243 240 238 237 242 245 248 244 242 240 232 226 222 221 223 225 232
243 256 269 267 264 278 178 265 215 267 273 265 248 258 288 274 283 282 269 263 253 244 237 231 227 225 224 222 222 224 228 235 244 240 237 235 232 235 236 233 236 238 235 231 226 227 230 237 240
225 246 277 291 279 277 293 270 285 282 269 272 266 256 264 275 272 272 265 261 256 251 246 239 235 230 225 222 223 228 230 233 238 237 236 234 233 235 231 231 230 229 227 225 225 227 231 235 234
224 249 277 295 280 288 283 288 279 269 276 272 277 286 282 276 269 269 265 255 251 258 250 248 241 238 230 224 226 232 229 233 236 236 233 232 230 232 232 233 229 228 225 226 225 227 230 234 238
258 249 273 281 294 286 276 287 281 269 271 279 286 290 284 273 264 266 266 262 256 246 248 251 245 239 236 234 233 232 233 235 237 235 232 233 229 231 229 231 230 229 225 226 225 230 236 236 235
247 271 279 281 278 275 283 270 268 274 275 283 284 284 276 271 270 264 263 265 260 250 246 248 250 243 239 238 236 237 234 235 233 236 230 234 233 233 233 231 231 229 226 227 226 227 228 232 236
314 292 285 279 272 272 264 277 285 270 283 288 288 287 281 276 268 272 269 270 272 276 270 258 252 251 245 242 240 241 238 238 235 236 238 237 235 235 235 234 233 231 230 228 227 228 228 229 229
285 292 292 276 259 255 263 272 233 268 276 281 288 289 286 273 278 282 278 268 265 271 270 263 263 257 248 246 244 241 243 240 241 239 239 240 237 237 238 237 236 235 233 231 229 228 227 226 226
273 279 283 318 111 201 201 280 297 328 313 291 289 288 285 288 292 292 284 273 267 261 258 262 256 257 255 249 248 245 244 245 243 244 244 244 240 238 238 238 238 237 235 233 231 229 228 227 226
239 271 279 292 302 220 222 295 298 301 299 289 286 285 297 301 311 309 293 274 270 260 257 258 261 257 254 252 247 248 246 247 248 247 248 247 245 241 241 241 240 238 236 234 231 229 229 229 226
279 293 294 290 292 245 274 278 293 292 283 277 281 299 306 313 342 341 355 354 334 308 279 272 266 268 263 251 247 246 246 249 247 248 251 251 250 247 242 242 242 240 238 234 230 230 229 229 228
283 288 282 287 294 288 289 299 297 288 284 270 287 302 317 5 26 32 37 41 49 44 37 15 338 304 289 276 260 252 250 250 253 253 253 252 252 248 244 243 242 240 238 237 234 231 226 223 222
278 277 280 282 279 302 290 295 281 282 271 282 301 303 320 32 46 55 46 46 52 50 48 34 18 3 338 299 280 266 261 260 259 261 258 254 253 254 249 243 242 242 240 237 233 230 225 222 224
262 272 282 287 305 286 291 288 254 249 260 274 19 355 31 69 66 47 46 42 47 50 53 48 35 24 359 325 297 286 272 266 267 263 265 264 258 254 254 251 246 245 242 240 238 234 231 225 222
279 283 286 285 290 287 9 294 295 302 272 141 92 59 38 61 63 52 49 45 41 38 39 40 37 29 20 4 335 306 293 288 283 282 279 275 271 264 258 255 250 248 248 244 240 237 234 230 229
253 334 278 273 269 287 271 243 256 259 257 91 84 67 63 67 60 48 41 38 34 29 29 29 30 23 19 11 355 324 301 295 298 288 282 281 278 275 266 261 258 250 249 248 244 241 235 233 233
25 275 262 264 267 259 260 234 302 325 138 153 79 78 74 67 52 42 39 31 32 29 27 22 21 22 15 3 352 335 318 306 295 298 285 279 283 282 277 268 264 259 252 249 246 245 243 238 234
224 271 287 261 229 256 299 283 248 283 288 72 108 91 81 65 53 46 39 29 22 20 19 18 14 9 8 6 1 352 337 322 312 306 296 280 281 282 282 284 274 265 257 252 249 246 245 241 238
203 257 271 294 279 293 301 268 260 323 92 107 103 91 73 49 35 29 22 14 7 2 0 0 0 356 357 357 355 353 349 343 331 317 304 290 279 279 280 286 285 278 265 256 251 247 245 244 241
359 232 276 271 272 275 270 273 275 259 133 103 86 62 37 22 15 11 6 2 359 355 354 353 350 352 353 354 354 350 346 344 343 334 318 303 296 293 286 279 278 279 275 264 254 246 245 244 243
230 25 259 216 246 259 272 279 283 284 110 59 44 44 36 25 15 5 0 353 348 343 340 339 337 337 334 337 341 344 345 345 341 340 338 329 310 297 291 288 283 277 275 271 260 254 246 243 244
228 245 230 262 251 265 273 271 295 49 63 67 34 23 8 3 358 359 355 351 348 348 347 345 342 342 338 338 339 338 338 339 340 339 335 335 335 323 300 290 289 286 279 276 267 259 251 246 243
285 278 273 262 268 246 249 257 283 5 89 41 357 6 360 346 336 348 352 349 347 346 346 346 342 340 336 336 338 336 334 336 337 337 332 329 329 333 330 305 289 282 281 278 270 265 258 247 245